Savanna, IA

2:28 PM CDT on June 27, 2017 (GMT -0500)
Tri-Township

Weather History for KSFY - June, 2013

Change the Weather History Date:

Sunday, June 9, 2013

  Actual Average (KCWI) Record (KCWI)
Temperature  
Mean Temperature 70 °F -  
Max Temperature 77 °F 80 °F 94 °F (1968)
Min Temperature 62 °F 57 °F 40 °F (1969)
Cooling Degree Days 4    
Growing Degree Days 20 (Base 50)    
Moisture  
Dew Point 56 °F    
Average Humidity 68    
Maximum Humidity 94    
Minimum Humidity 49    
Precipitation  
Precipitation 0.27 in - - ()
Sea Level Pressure  
Sea Level Pressure 29.85 in    
Wind  
Wind Speed 10 mph (SE)    
Max Wind Speed 24 mph    
Max Gust Speed 28 mph    
Visibility 10 miles    
Events Rain , Thunderstorm    
Averages and records for this station are not official NWS values.
T = Trace of Precipitation, MM = Missing Value Source: NWS Daily Summary

Daily Weather History Graph

Daily Weather History Graph

Search for Another Location

Airport or City:

Trip Planner

Search our weather history database for the weather conditions in past years. The results will help you decide how hot, cold, wet, or windy it might be!

Date:

Astronomy

Jun. 09, 2013 Rise Set
Actual Time 5:24 AM CDT 8:35 PM CDT
Civil Twilight 4:50 AM CDT 9:09 PM CDT
Nautical Twilight 4:06 AM CDT 9:53 PM CDT
Astronomical Twilight 3:13 AM CDT 10:46 PM CDT
Moon 6:22 AM CDT (6/9) 9:20 PM CDT (6/9)
Length of Visible Light 16h 19m
Length of Day
15h 10m
New Moon, 1% of the Moon is Illuminated
Jun 9
New Moon
Jun 16
First Quarter
Jun 23
Full
Jun 29
Last Quarter
Jul 8
New

Hourly Weather History & Observations

Time (CDT) Temp. Dew Point Humidity Pressure Visibility Wind Dir Wind Speed Gust Speed Precip Events Conditions
12:17 AM 66.2 °F 46.4 °F 49% 29.95 in 10.0 mi ESE 11.5 mph 19.6 mph N/A   Scattered Clouds
12:39 AM 66.2 °F 46.4 °F 49% 29.95 in 10.0 mi ESE 12.7 mph 18.4 mph N/A   Overcast
12:57 AM 66.2 °F 46.4 °F 49% 29.95 in 10.0 mi ESE 10.4 mph - N/A   Mostly Cloudy
1:17 AM 66.2 °F 46.4 °F 49% 29.95 in 10.0 mi ESE 11.5 mph - N/A   Mostly Cloudy
1:37 AM 64.4 °F 44.6 °F 49% 29.94 in 10.0 mi ESE 11.5 mph - N/A   Scattered Clouds
1:57 AM 64.4 °F 44.6 °F 49% 29.93 in 10.0 mi ESE 10.4 mph - N/A   Clear
2:16 AM 64.4 °F 44.6 °F 49% 29.92 in 10.0 mi East 10.4 mph - N/A   Clear
2:36 AM 64.4 °F 44.6 °F 49% 29.93 in 10.0 mi East 9.2 mph - N/A   Clear
2:56 AM 64.4 °F 44.6 °F 49% 29.93 in 10.0 mi ESE 9.2 mph - N/A   Clear
3:17 AM 64.4 °F 44.6 °F 49% 29.93 in 10.0 mi ESE 10.4 mph - N/A   Clear
3:37 AM 62.6 °F 46.4 °F 55% 29.93 in 10.0 mi ESE 8.1 mph - N/A   Scattered Clouds
3:57 AM 62.6 °F 46.4 °F 55% 29.93 in 10.0 mi ESE 8.1 mph - N/A   Mostly Cloudy
4:17 AM 62.6 °F 46.4 °F 55% 29.93 in 10.0 mi ESE 5.8 mph - N/A   Overcast
4:37 AM 62.6 °F 48.2 °F 59% 29.93 in 10.0 mi ESE 4.6 mph - N/A   Mostly Cloudy
4:57 AM 62.6 °F 48.2 °F 59% 29.91 in 10.0 mi East 9.2 mph - N/A   Scattered Clouds
5:18 AM 62.6 °F 48.2 °F 59% 29.91 in 10.0 mi ESE 9.2 mph - N/A   Mostly Cloudy
5:38 AM 62.6 °F 50.0 °F 63% 29.91 in 10.0 mi ESE 9.2 mph - N/A   Mostly Cloudy
5:59 AM 62.6 °F 50.0 °F 63% 29.91 in 10.0 mi ESE 8.1 mph - N/A   Overcast
6:20 AM 62.6 °F 51.8 °F 68% 29.91 in 10.0 mi ESE 8.1 mph - N/A   Overcast
6:37 AM 64.4 °F 51.8 °F 64% 29.91 in 10.0 mi ESE 10.4 mph - N/A   Overcast
6:58 AM 66.2 °F 53.6 °F 64% 29.90 in 10.0 mi ESE 12.7 mph 19.6 mph N/A   Overcast
7:17 AM 66.2 °F 53.6 °F 64% 29.89 in 10.0 mi SE 13.8 mph 21.9 mph N/A   Overcast
7:37 AM 66.2 °F 55.4 °F 68% 29.89 in 10.0 mi ESE 10.4 mph 16.1 mph N/A   Overcast
8:00 AM 68.0 °F 55.4 °F 64% 29.88 in 10.0 mi ESE 12.7 mph 16.1 mph N/A   Mostly Cloudy
8:17 AM 69.8 °F 55.4 °F 60% 29.88 in 10.0 mi SE 12.7 mph 19.6 mph N/A   Scattered Clouds
8:38 AM 71.6 °F 55.4 °F 57% 29.88 in 10.0 mi SE 15.0 mph 20.7 mph N/A   Scattered Clouds
8:57 AM 73.4 °F 57.2 °F 57% 29.87 in 10.0 mi SE 16.1 mph - N/A   Mostly Cloudy
9:17 AM 73.4 °F 57.2 °F 57% 29.87 in 10.0 mi SE 12.7 mph - N/A   Mostly Cloudy
9:37 AM 75.2 °F 57.2 °F 53% 29.87 in 10.0 mi SE 17.3 mph - N/A   Scattered Clouds
9:57 AM 73.4 °F 55.4 °F 53% 29.86 in 10.0 mi SE 18.4 mph 23.0 mph N/A   Clear
10:18 AM 75.2 °F 57.2 °F 53% 29.86 in 10.0 mi SSE 19.6 mph 23.0 mph N/A   Scattered Clouds
10:38 AM 75.2 °F 57.2 °F 53% 29.86 in 10.0 mi SSE 18.4 mph 24.2 mph N/A   Overcast
10:58 AM 75.2 °F 57.2 °F 53% 29.86 in 10.0 mi SSE 18.4 mph 26.5 mph N/A   Overcast
11:18 AM 75.2 °F 57.2 °F 53% 29.86 in 10.0 mi SSE 18.4 mph 21.9 mph N/A   Mostly Cloudy
11:37 AM 77.0 °F 57.2 °F 50% 29.85 in 10.0 mi South 13.8 mph 20.7 mph N/A   Scattered Clouds
11:57 AM 75.2 °F 57.2 °F 53% 29.85 in 10.0 mi SSE 17.3 mph 20.7 mph N/A   Mostly Cloudy
12:18 PM 75.2 °F 57.2 °F 53% 29.84 in 10.0 mi SSE 16.1 mph 19.6 mph N/A   Mostly Cloudy
12:37 PM 75.2 °F 57.2 °F 53% 29.84 in 10.0 mi South 16.1 mph 25.3 mph N/A   Mostly Cloudy
12:58 PM 75.2 °F 57.2 °F 53% 29.84 in 10.0 mi South 13.8 mph - N/A   Overcast
1:17 PM 73.4 °F 59.0 °F 61% 29.84 in 10.0 mi South 11.5 mph - N/A   Overcast
1:37 PM 73.4 °F 59.0 °F 61% 29.83 in 10.0 mi SSW 9.2 mph 17.3 mph N/A   Mostly Cloudy
1:57 PM 73.4 °F 60.8 °F 65% 29.83 in 10.0 mi SSW 9.2 mph - N/A   Scattered Clouds
2:18 PM 73.4 °F 60.8 °F 65% 29.83 in 10.0 mi SSW 9.2 mph - N/A   Mostly Cloudy
2:38 PM 75.2 °F 60.8 °F 61% 29.82 in 10.0 mi SW 5.8 mph - N/A   Overcast
2:58 PM 73.4 °F 60.8 °F 65% 29.81 in 10.0 mi SW 5.8 mph - N/A   Overcast
3:17 PM 73.4 °F 60.8 °F 65% 29.81 in 10.0 mi SW 5.8 mph - N/A   Overcast
3:37 PM 73.4 °F 60.8 °F 65% 29.81 in 10.0 mi WSW 5.8 mph - N/A   Overcast
3:57 PM 71.6 °F 60.8 °F 69% 29.80 in 10.0 mi WSW 5.8 mph - N/A   Mostly Cloudy
4:17 PM 71.6 °F 60.8 °F 69% 29.79 in 10.0 mi WSW 6.9 mph - N/A   Mostly Cloudy
4:37 PM 71.6 °F 60.8 °F 69% 29.80 in 10.0 mi WSW 4.6 mph - N/A Rain Light Rain
4:57 PM 69.8 °F 62.6 °F 78% 29.83 in 4.0 mi South 24.2 mph 27.6 mph 0.07 in Rain , Thunderstorm Heavy Thunderstorms and Rain
5:17 PM 62.6 °F 60.8 °F 94% 29.83 in 4.0 mi South 4.6 mph - 0.11 in Rain Rain
5:37 PM 62.6 °F 60.8 °F 94% 29.82 in 2.5 mi Calm Calm - 0.18 in Rain Heavy Rain
5:58 PM 64.4 °F 62.6 °F 94% 29.81 in 10.0 mi Calm Calm - 0.20 in Rain Light Rain
6:17 PM 64.4 °F 62.6 °F 94% 29.79 in 10.0 mi Calm Calm - N/A Rain Light Rain
6:37 PM 64.4 °F 60.8 °F 88% 29.79 in 10.0 mi Calm Calm - N/A   Overcast
6:57 PM 64.4 °F 62.6 °F 94% 29.78 in 10.0 mi Calm Calm - N/A   Overcast
7:17 PM 64.4 °F 62.6 °F 94% 29.79 in 10.0 mi Calm Calm - N/A   Overcast
7:37 PM 64.4 °F 62.6 °F 94% 29.79 in 10.0 mi East 3.5 mph - N/A   Overcast
7:57 PM 64.4 °F 62.6 °F 94% 29.79 in 10.0 mi Calm Calm - N/A   Overcast
8:18 PM 64.4 °F 62.6 °F 94% 29.79 in 10.0 mi Calm Calm - N/A   Overcast
8:37 PM 64.4 °F 62.6 °F 94% 29.79 in 7.0 mi Calm Calm - N/A   Overcast
8:57 PM 64.4 °F 62.6 °F 94% 29.79 in 10.0 mi ENE 3.5 mph - N/A   Overcast
9:17 PM 64.4 °F 62.6 °F 94% 29.79 in 10.0 mi East 5.8 mph - N/A   Light Drizzle
9:37 PM 64.4 °F 62.6 °F 94% 29.79 in 10.0 mi East 6.9 mph - N/A   Scattered Clouds
9:57 PM 64.4 °F 62.6 °F 94% 29.79 in 10.0 mi East 8.1 mph - N/A   Scattered Clouds
10:18 PM 64.4 °F 62.6 °F 94% 29.79 in 10.0 mi East 5.8 mph - N/A   Scattered Clouds
10:37 PM 64.4 °F 62.6 °F 94% 29.79 in 10.0 mi East 6.9 mph - N/A   Clear
10:58 PM 64.4 °F 62.6 °F 94% 29.79 in 10.0 mi East 5.8 mph - N/A   Clear
11:18 PM 64.4 °F 62.6 °F 94% 29.79 in 10.0 mi Calm Calm - N/A   Scattered Clouds
11:38 PM 64.4 °F 60.8 °F 88% 29.79 in 10.0 mi Calm Calm - N/A   Mostly Cloudy
11:57 PM 62.6 °F 60.8 °F 94% 29.79 in 7.0 mi Calm Calm - N/A   Scattered Clouds